Theta_e
320 317 319 314 305 302 298 300 305 305 308 312 313 312 313 314 312 308 330 336 338 341 346 348 347 348 349 348 348 348 347 347 346 345 344 343 341 339 339 338 340 337 336 336 336 338 338 337 336
311 313 315 309 301 297 299 300 302 306 311 314 314 314 313 313 323 324 329 337 340 343 346 346 344 348 350 349 348 348 347 346 346 343 342 340 339 338 337 337 336 336 336 336 336 337 337 336 335
310 309 309 305 298 297 298 300 302 307 313 310 312 316 315 314 324 327 333 339 342 343 344 343 344 349 349 349 349 348 347 346 343 343 340 339 338 338 338 336 337 336 335 335 336 336 336 335 334
306 304 303 302 298 301 301 302 303 309 311 310 314 312 318 325 326 331 337 340 341 342 342 342 345 347 349 348 348 347 346 346 346 343 340 340 340 341 340 341 340 337 336 335 335 335 334 333 333
303 300 295 296 298 301 303 304 307 308 308 308 312 310 315 325 330 336 338 340 338 340 342 344 343 345 347 348 347 346 346 346 346 345 343 342 342 340 339 338 337 339 337 334 334 333 332 331 331
301 297 291 289 293 298 298 306 307 307 307 309 310 312 316 327 331 334 338 339 339 339 342 344 337 340 343 346 345 346 346 346 345 344 343 342 341 340 339 337 337 337 336 334 332 332 331 330 329
301 294 291 290 291 294 299 306 305 306 306 309 313 309 316 324 330 334 336 338 338 340 341 343 342 339 336 340 341 343 343 343 343 343 342 340 336 339 338 336 337 336 334 334 333 332 331 330 330
299 295 292 291 291 293 302 306 308 307 306 314 316 310 312 323 331 332 334 335 337 339 339 340 342 342 342 343 334 336 338 338 338 337 336 332 332 333 332 330 331 333 336 335 335 334 333 331 330
301 292 289 291 291 294 301 304 307 310 309 313 316 314 318 326 330 329 329 331 333 335 336 338 339 340 340 341 335 332 332 333 332 333 329 327 332 332 331 327 330 331 331 332 335 335 334 332 330
297 290 291 294 294 294 298 302 306 307 308 310 315 319 324 326 328 326 326 325 328 331 333 336 338 337 337 337 337 338 338 338 336 335 334 331 330 330 328 325 326 329 329 331 333 333 330 328 330
296 291 294 294 296 298 298 300 306 306 305 309 311 315 321 323 326 325 326 327 327 329 332 334 335 336 335 336 335 335 336 336 335 334 332 330 328 328 328 328 328 328 322 328 328 329 330 328 328
292 295 293 296 297 301 299 301 301 304 308 311 313 319 321 322 323 325 326 327 328 329 330 332 334 334 334 335 333 333 333 334 333 332 331 329 328 326 326 326 326 326 326 326 326 326 325 325 325
294 294 296 297 300 299 300 298 297 299 305 308 315 319 321 322 324 326 327 328 330 329 330 331 333 333 333 332 332 332 332 332 332 331 331 330 328 326 326 326 325 325 325 325 325 324 324 324 323
291 295 293 295 296 297 297 296 298 298 300 301 303 316 320 321 323 324 325 327 328 330 330 331 331 332 332 332 331 331 332 331 331 330 330 329 329 328 326 326 325 325 325 325 324 324 324 323 323
294 290 291 292 293 294 299 292 295 299 303 305 306 312 318 321 322 322 326 327 329 330 330 329 330 331 331 331 330 330 331 330 330 330 329 328 328 327 327 326 325 326 326 325 325 324 323 322 322
290 289 283 289 292 293 293 287 292 296 297 297 304 310 315 319 322 324 324 326 328 330 329 330 332 330 331 331 330 330 330 329 329 329 329 328 327 327 327 326 325 326 325 325 324 324 323 322 322
285 279 281 286 291 291 289 286 291 293 294 295 295 298 307 315 318 321 324 325 326 329 329 329 331 331 331 332 331 331 330 329 329 329 329 328 327 327 327 325 326 326 325 324 323 322 321 321 321
280 280 281 283 286 289 288 287 290 292 291 291 291 292 294 296 306 318 322 324 325 327 329 330 330 331 331 332 331 330 329 330 330 329 329 329 328 327 326 326 326 325 323 322 321 321 320 320 321
283 282 281 283 287 286 285 286 290 292 291 292 292 292 293 294 297 299 309 322 324 324 325 328 328 330 330 329 328 328 327 329 328 329 329 328 328 327 326 327 327 326 324 324 323 322 320 320 320
283 281 280 284 287 287 284 284 287 288 290 292 293 293 293 293 294 296 297 302 318 323 324 325 327 329 329 330 330 330 330 330 331 330 328 329 328 328 327 328 328 327 326 325 324 324 321 320 320
283 280 280 281 285 285 282 281 284 287 289 290 291 293 293 294 295 295 295 297 299 311 322 323 325 327 329 330 328 325 325 325 326 327 328 328 329 329 328 328 328 327 327 325 325 323 323 322 322
281 285 285 284 282 276 281 273 279 283 284 285 288 291 293 292 293 293 294 295 295 299 306 320 323 325 328 330 328 326 326 325 327 327 328 327 327 327 328 328 328 328 328 326 326 325 323 322 319
283 287 285 285 282 280 278 276 278 282 282 285 287 287 288 289 290 291 293 295 296 296 299 308 319 321 325 328 328 327 327 327 324 325 325 325 325 326 326 326 326 326 327 327 325 324 323 322 322
288 285 284 282 281 274 277 277 276 280 282 284 286 287 288 288 289 289 291 292 292 295 296 301 309 315 320 325 326 326 326 322 322 322 323 322 323 323 324 324 325 326 325 325 324 324 323 323 323
287 281 271 270 268 272 277 276 278 283 285 286 287 288 287 288 290 293 294 295 295 297 298 301 303 302 307 312 313 318 321 321 320 318 318 317 316 315 310 315 320 322 323 323 323 322 322 322 321
285 281 274 266 267 272 278 275 278 285 288 290 290 290 289 291 292 291 292 293 294 294 296 297 297 296 297 298 298 299 301 302 301 301 301 301 302 302 303 305 308 311 315 319 321 321 321 322 321
286 282 284 277 268 270 275 279 284 287 287 288 289 290 289 289 289 289 289 289 289 289 289 291 291 291 291 292 292 292 293 293 294 294 296 296 297 299 299 301 302 302 303 305 308 307 304 309 307
288 289 280 278 268 267 274 276 277 283 284 286 286 288 289 289 287 285 285 285 285 286 286 287 287 286 287 288 288 288 288 289 290 290 290 291 292 294 295 296 297 298 298 299 300 299 299 300 299
286 284 285 282 277 270 269 274 281 284 284 284 285 287 288 285 283 282 282 282 282 282 282 283 283 283 283 284 285 285 285 286 286 286 287 288 289 290 291 293 294 294 293 294 294 294 293 293 292
289 285 286 279 273 274 275 275 285 285 285 284 284 287 283 282 281 281 280 280 279 279 279 280 280 281 281 282 282 282 282 283 283 282 283 284 285 286 287 288 289 290 290 290 289 289 289 289 288
Wind_Speed
6 5 2 3 3 3 3 5 2 4 4 2 6 5 6 1 4 3 1 7 11 16 14 15 16 16 16 16 17 16 16 15 18 16 15 14 13 13 13 14 12 12 13 12 13 13 13 12 13
2 3 3 2 4 1 4 3 6 6 4 8 4 4 2 3 2 4 9 6 15 15 12 13 14 16 15 17 17 16 16 15 16 15 14 13 13 13 13 13 12 11 12 12 12 12 12 12 13
4 3 3 3 3 4 4 5 5 3 7 4 4 1 5 3 2 10 2 13 15 14 12 12 13 14 15 17 16 16 15 16 14 13 13 13 14 13 13 13 12 11 11 11 11 11 11 11 11
4 4 4 3 4 5 5 2 5 7 2 1 3 3 1 1 4 7 12 15 15 13 11 12 13 15 15 14 15 15 15 15 15 14 11 12 12 11 10 10 10 12 11 11 11 10 9 9 10
4 3 2 1 4 4 4 3 7 5 5 5 5 4 2 1 3 11 15 15 16 12 11 11 11 13 14 14 14 14 13 14 14 13 14 11 11 12 10 8 8 12 12 10 10 9 8 8 8
4 3 2 3 5 4 5 3 5 4 4 3 4 6 3 2 7 10 14 15 14 14 11 9 9 11 13 13 12 12 12 13 14 14 15 14 10 12 10 8 9 9 10 10 8 8 7 7 7
2 3 4 3 3 5 4 6 4 5 6 5 5 6 2 4 6 10 11 12 13 12 12 9 9 10 10 11 10 10 10 10 9 10 10 13 11 11 11 9 7 8 9 8 9 8 6 5 5
4 3 3 3 3 6 2 4 2 5 5 2 2 4 4 5 11 10 10 10 11 11 12 10 8 8 9 9 9 9 8 9 8 8 7 9 8 9 7 9 9 7 7 8 9 8 6 4 3
3 2 3 5 6 6 2 4 1 1 5 2 4 2 2 12 15 11 10 8 7 8 11 11 9 8 8 8 7 8 8 8 8 7 7 7 5 6 7 6 7 7 7 6 9 8 6 4 1
3 4 8 6 5 4 2 3 6 4 3 3 2 4 6 14 15 16 14 13 12 12 11 11 11 10 8 6 7 7 6 6 6 6 6 5 5 4 5 5 6 6 6 5 4 5 5 4 2
4 7 5 4 5 3 2 2 1 6 3 6 9 7 9 11 12 14 15 14 15 14 10 11 11 11 11 8 6 4 4 4 5 7 6 6 4 4 3 2 2 3 1 2 2 1 1 3 3
4 8 4 3 5 5 4 3 2 4 5 1 4 7 10 14 16 17 16 15 15 15 15 12 11 10 11 7 7 7 6 5 5 6 8 6 4 4 4 3 3 3 2 3 3 2 3 4 5
4 4 4 3 3 3 2 4 4 7 8 3 3 7 12 14 14 11 9 11 14 15 15 12 11 11 10 10 8 7 7 7 7 7 8 7 6 6 5 5 4 4 3 4 4 4 4 5 5
4 4 3 2 4 2 4 2 4 7 5 8 5 8 10 13 16 9 11 13 14 13 15 12 11 11 10 9 9 8 7 8 7 7 7 9 7 6 6 5 5 5 5 4 4 5 5 5 5
1 4 3 5 5 4 4 4 9 8 4 6 8 7 8 11 8 16 16 14 14 12 13 14 12 12 12 11 9 8 7 7 7 7 9 10 9 8 8 6 6 6 5 6 5 5 5 5 5
3 2 4 1 8 4 8 9 10 5 5 10 7 6 6 8 11 10 7 10 10 11 13 12 11 13 13 11 9 7 7 8 8 7 7 10 10 10 8 6 6 6 5 5 4 4 5 5 6
3 3 4 5 9 5 7 7 5 1 6 10 7 6 6 6 8 8 9 11 11 12 12 12 12 13 14 11 8 8 8 7 7 7 8 10 10 10 8 7 6 6 5 5 5 4 4 4 6
6 4 3 5 3 2 4 10 7 3 3 5 7 7 7 7 13 5 9 9 10 11 12 11 11 12 12 8 7 5 5 6 7 8 8 10 8 10 9 7 7 6 4 4 4 6 4 5 5
4 3 4 3 2 2 6 6 15 6 4 6 6 7 6 8 7 6 6 8 9 10 12 13 13 13 10 8 7 7 7 7 7 8 9 9 9 10 9 7 7 7 6 8 7 4 6 5 4
3 3 4 3 1 4 4 8 13 6 7 9 11 8 9 6 7 8 7 7 9 11 13 13 14 13 12 9 8 4 6 5 6 6 8 10 10 9 8 9 8 7 5 6 6 7 3 3 4
4 6 3 2 3 1 4 7 8 5 4 4 6 8 6 12 12 8 6 7 7 10 13 13 14 14 13 12 6 4 4 2 4 6 7 9 10 9 10 9 8 8 7 6 7 7 8 5 4
7 6 4 1 3 4 2 7 6 4 6 5 9 10 14 7 6 7 8 7 8 10 6 7 9 12 12 12 10 12 10 7 6 5 4 5 8 8 9 9 8 9 7 8 7 6 6 5 5
6 7 9 6 4 1 2 1 8 4 5 8 7 7 7 7 7 8 8 10 7 5 7 6 6 6 8 12 12 10 9 7 2 3 5 5 5 7 7 8 8 8 7 6 7 6 7 6 5
6 7 6 4 3 4 7 7 5 5 3 5 2 8 8 7 6 5 5 6 5 3 4 5 6 3 5 8 9 10 9 5 4 3 3 3 2 3 4 5 6 7 7 7 6 7 7 7 6
3 7 2 3 1 7 2 4 7 5 5 3 7 7 8 8 9 10 12 11 10 10 7 6 7 8 7 8 7 4 4 4 3 2 1 2 2 3 5 4 3 3 4 4 4 4 5 5 6
8 7 7 9 6 3 1 8 4 4 3 4 6 7 9 11 11 13 13 12 13 15 14 13 14 14 13 12 13 11 11 7 7 9 7 6 6 6 7 6 6 6 4 3 2 4 4 5 5
7 8 5 6 2 3 5 5 1 4 7 8 10 11 12 12 14 15 14 14 14 16 16 15 15 15 14 13 12 13 12 13 10 11 10 8 8 7 8 9 9 9 9 8 6 5 6 5 6
8 9 4 1 5 4 3 3 4 1 5 6 9 10 11 12 14 13 13 14 13 14 13 15 15 15 13 13 12 11 12 12 11 11 12 11 10 10 9 10 10 10 10 10 9 7 8 7 6
6 6 3 4 4 5 3 4 3 3 2 4 6 10 10 11 11 11 12 12 12 13 14 14 14 14 14 12 12 12 11 12 12 11 11 11 10 10 10 10 10 11 11 11 9 9 9 9 7
14 10 7 7 6 2 3 3 3 5 5 4 5 9 8 10 9 10 11 12 13 13 13 13 12 13 12 11 11 13 12 12 12 12 12 10 11 10 10 10 10 11 11 11 10 10 9 9 9
Wind_Direction
5 102 87 48 73 65 254 242 182 156 157 170 126 151 190 163 166 198 347 167 142 147 155 155 143 153 159 148 144 145 142 143 139 136 132 129 128 126 123 122 117 119 115 115 113 108 98 84 75
46 117 52 81 104 115 263 225 200 189 149 120 107 107 138 195 126 107 125 178 151 148 150 147 147 160 150 150 147 148 146 147 141 142 135 135 133 131 129 125 122 122 117 120 118 111 97 84 75
114 47 97 111 124 185 226 213 197 143 143 124 111 29 154 176 123 163 167 148 147 148 150 151 153 156 147 153 152 154 153 148 148 147 145 142 140 139 137 135 129 128 121 119 115 108 96 87 80
42 21 37 112 212 244 209 254 172 124 254 192 132 138 298 246 159 176 145 145 144 145 149 156 164 156 147 148 153 159 160 153 152 150 149 150 146 140 127 144 143 136 124 118 116 111 101 92 85
35 58 78 153 247 260 243 251 164 161 157 164 162 178 204 60 96 134 145 148 151 148 151 160 155 151 146 151 160 159 164 163 150 154 154 158 154 137 130 122 106 143 126 120 118 114 105 94 85
18 92 78 231 250 258 280 193 156 158 159 152 129 144 191 104 134 151 147 150 153 154 151 157 155 149 147 150 154 157 163 166 159 160 160 153 145 144 144 142 126 122 116 119 121 117 106 95 85
131 103 222 214 257 295 247 138 177 161 148 219 147 141 150 174 162 151 143 140 147 150 155 158 161 157 147 147 153 151 144 140 145 162 165 155 155 154 161 147 147 137 133 145 136 132 124 110 91
107 100 151 236 208 260 185 200 159 169 203 64 170 180 187 180 145 130 130 137 145 149 161 163 162 160 158 158 154 154 155 154 152 153 162 143 145 153 147 150 179 177 154 150 152 155 154 147 128
142 64 208 225 167 248 180 195 113 126 124 216 180 148 27 131 133 133 142 145 151 162 166 167 164 165 159 160 162 153 150 155 150 147 146 135 155 167 162 164 170 191 192 195 168 166 174 181 191
156 170 221 204 196 227 234 206 169 147 141 219 185 91 101 143 153 161 169 174 176 178 181 177 169 168 164 161 162 169 167 172 167 163 161 161 164 173 185 185 187 180 174 175 183 198 199 191 233
202 211 210 238 216 180 206 291 266 140 228 217 202 143 146 162 169 177 182 182 182 181 180 184 176 172 170 172 166 171 178 175 175 173 171 171 170 178 183 190 197 203 209 221 233 248 231 232 242
235 256 197 256 210 151 188 148 230 218 220 86 191 149 160 173 186 190 188 184 182 185 188 186 182 180 177 170 176 175 176 184 183 184 179 176 178 183 191 201 209 220 215 226 229 235 246 248 250
233 254 184 261 187 208 146 212 219 248 258 280 81 164 182 185 196 190 181 182 184 191 191 187 183 185 184 181 178 180 185 184 191 190 191 185 189 194 190 205 205 214 215 230 236 241 247 253 262
204 245 250 226 226 244 192 252 145 260 235 248 231 202 205 199 196 167 181 185 191 188 194 191 186 191 182 188 187 188 189 189 189 195 199 198 197 199 201 207 213 218 216 225 234 241 249 258 266
237 274 271 219 188 225 161 256 222 217 144 219 238 227 210 216 178 198 200 193 189 188 190 196 189 190 183 190 191 191 195 192 196 201 201 202 204 208 205 211 215 221 220 231 237 251 258 264 262
201 172 223 262 155 222 154 256 250 228 199 233 237 236 228 217 213 216 191 194 183 183 190 188 187 188 188 191 191 198 198 196 202 203 204 206 209 209 210 214 222 222 220 222 230 236 248 255 262
350 203 200 294 202 146 180 253 248 333 203 243 228 247 248 246 240 220 196 193 188 190 184 190 188 186 191 188 187 194 202 207 208 204 204 207 209 210 209 213 220 215 222 220 226 234 227 256 266
191 190 207 229 249 208 191 253 256 307 193 257 262 233 241 255 249 238 213 202 187 191 192 194 189 191 186 184 178 176 193 217 214 210 209 204 207 208 209 213 216 199 205 211 199 221 210 228 244
149 184 184 219 328 224 252 257 266 251 261 273 257 256 248 246 264 235 230 210 193 193 191 196 190 192 180 182 182 198 207 214 217 221 211 204 203 204 204 208 210 183 190 206 202 198 220 233 228
153 183 222 282 75 171 282 263 262 240 235 216 231 236 242 249 266 250 229 208 203 204 203 197 203 189 190 189 193 186 184 207 216 206 210 211 206 203 202 209 214 204 204 197 200 206 199 215 184
194 176 175 202 324 161 323 276 249 257 255 251 255 245 239 228 243 251 241 223 214 214 207 202 201 194 193 192 161 117 101 107 168 205 212 216 213 206 206 211 214 209 208 211 206 200 210 232 200
218 179 167 189 45 238 30 281 291 309 291 264 249 234 242 241 253 263 256 244 226 229 214 211 198 193 196 180 181 186 197 192 200 192 195 185 195 209 215 222 219 220 219 223 213 200 204 208 222
217 158 185 190 185 20 236 320 268 345 298 257 265 275 268 270 256 252 257 263 251 230 206 202 189 185 178 186 191 193 206 215 143 156 172 192 191 208 213 216 219 224 225 226 214 208 206 203 220
141 94 59 61 113 258 204 171 265 214 240 321 1 335 323 304 312 318 300 288 285 268 229 179 180 179 172 176 189 190 200 156 154 160 181 181 197 203 226 231 229 228 223 225 224 224 221 222 228
172 141 42 16 351 230 216 166 244 287 299 286 319 351 357 12 36 30 29 24 35 38 43 71 78 57 55 81 70 82 130 142 141 111 92 100 81 49 24 350 291 265 254 246 233 224 223 231 241
183 179 163 183 194 197 181 227 240 321 28 33 45 31 36 38 38 42 39 43 43 44 47 58 63 62 55 57 58 58 58 67 66 62 66 61 62 52 31 36 39 28 20 339 264 236 236 238 231
182 214 168 109 59 75 208 286 342 13 31 27 42 50 45 48 51 48 42 44 47 48 45 48 56 57 50 56 59 56 55 58 61 59 59 53 45 44 38 40 44 39 37 29 38 46 26 31 31
169 158 186 40 151 231 263 274 201 60 28 15 42 51 62 62 55 44 43 42 44 46 49 49 51 54 52 54 54 57 56 58 60 58 55 52 42 41 42 42 44 43 37 34 39 41 29 41 33
180 184 189 124 157 167 149 249 227 131 69 93 63 71 71 69 57 50 49 46 50 50 47 51 49 50 47 46 50 54 50 49 53 54 48 46 46 38 43 44 50 50 44 36 43 46 34 43 38
206 205 205 198 216 238 137 247 80 108 114 120 90 94 86 77 68 60 54 52 47 46 45 46 46 51 47 48 50 50 50 49 50 47 42 40 46 41 41 43 50 51 49 45 43 43 36 37 33